Location: Caltech
(34.1382°N, 118.1253°W)
Time: 17:33:47
(UTC-07:00)

Cosmos 1833 Rocket - Visible Passes

Search period start: 28 July 2014 00:00
Search period end: 07 August 2014 00:00
Orbit: 834 x 839 km, 71.0° (Epoch: 28 July)

Date Brightness Start Highest point End Pass type
(mag) Time Alt. Az. Time Alt. Az. Time Alt. Az.
28 Jul 4.3 04:51:00 10° N 04:56:14 39° ENE 05:01:26 10° SE visible
29 Jul 4.4 04:34:30 10° N 04:39:37 36° ENE 04:44:43 10° SE visible
30 Jul 4.5 04:17:59 10° N 04:23:00 33° ENE 04:28:00 10° SE visible
31 Jul 4.6 04:01:30 10° N 04:06:23 30° ENE 04:11:15 10° ESE visible
01 Aug 4.7 03:45:01 10° N 03:49:46 28° ENE 03:54:30 10° ESE visible
01 Aug 3.3 05:28:40 10° NW 05:33:39 34° WSW 05:38:37 10° SSW visible
02 Aug 4.8 03:28:32 10° N 03:33:09 26° ENE 03:37:43 10° ESE visible
02 Aug 3.2 05:12:00 10° NW 05:17:06 37° WSW 05:22:11 10° S visible
03 Aug 4.8 03:12:05 10° N 03:16:31 24° ENE 03:20:56 10° ESE visible
03 Aug 3.1 04:55:20 10° NW 05:00:33 41° WSW 05:05:44 10° S visible
04 Aug 4.9 02:55:38 10° N 02:59:53 22° ENE 03:04:07 10° ESE visible
04 Aug 2.9 04:38:41 10° NW 04:43:59 45° WSW 04:49:16 10° S visible
05 Aug 5.0 02:39:12 10° NNE 02:43:15 20° ENE 02:47:16 10° ESE visible
05 Aug 2.8 04:22:02 10° NNW 04:27:25 49° WSW 04:31:32 17° S visible
06 Aug 5.0 02:22:47 10° NNE 02:26:36 18° ENE 02:30:24 10° E visible
06 Aug 2.7 04:05:24 10° NNW 04:10:51 54° WSW 04:12:21 42° SSW visible
